Time,TemperatureF,DewpointF,PressureIn,WindDirection,WindDirectionDegrees,WindSpeedMPH,WindSpeedGustMPH,Humidity,HourlyPrecipIn,Conditions,Clouds,dailyrainin,SolarRadiationWatts/m^2,SoftwareType,DateUTC
2013-12-27 00:00:00,13.1,10.7,30.17,ENE,67,0.0,0.0,90,0.00,,---,0.00,0.00,VWS V14.01,2013-12-27 06:00:00,
2013-12-27 00:02:00,13.1,10.7,30.17,ENE,67,0.0,0.0,90,0.00,,---,0.00,0.00,VWS V14.01,2013-12-27 06:02:00,
2013-12-27 00:05:00,12.9,10.5,30.17,ENE,67,0.0,0.0,90,0.00,,---,0.00,0.00,VWS V14.01,2013-12-27 06:05:00,
2013-12-27 00:10:00,12.7,10.3,30.18,ENE,67,0.0,0.0,90,0.00,,---,0.00,0.00,VWS V14.01,2013-12-27 06:10:00,
2013-12-27 00:12:00,12.7,10.3,30.18,ENE,67,0.0,0.0,90,0.00,,---,0.00,0.00,VWS V14.01,2013-12-27 06:12:00,
2013-12-27 00:15:00,12.6,10.2,30.17,ENE,67,0.0,0.0,90,0.00,,---,0.00,0.00,VWS V14.01,2013-12-27 06:15:00,
2013-12-27 00:17:00,12.6,10.2,30.17,ENE,67,0.0,0.0,90,0.00,,---,0.00,0.00,VWS V14.01,2013-12-27 06:17:00,
2013-12-27 00:20:00,12.4,10.0,30.17,ENE,67,0.0,0.0,90,0.00,,---,0.00,0.00,VWS V14.01,2013-12-27 06:20:00,
2013-12-27 00:22:00,12.4,10.0,30.17,ENE,67,0.0,0.0,90,0.00,,---,0.00,0.00,VWS V14.01,2013-12-27 06:22:00,
2013-12-27 00:25:00,12.1,9.5,30.17,ENE,67,0.0,0.0,89,0.00,,---,0.00,0.00,VWS V14.01,2013-12-27 06:25:00,
2013-12-27 00:27:00,12.1,9.5,30.17,ENE,67,0.0,0.0,89,0.00,,---,0.00,0.00,VWS V14.01,2013-12-27 06:27:00,
2013-12-27 00:30:00,11.7,9.1,30.17,ENE,67,0.0,0.0,89,0.00,,---,0.00,0.00,VWS V14.01,2013-12-27 06:30:00,
2013-12-27 00:32:00,11.7,9.1,30.17,ENE,67,0.0,0.0,89,0.00,,---,0.00,0.00,VWS V14.01,2013-12-27 06:32:00,
2013-12-27 00:35:00,11.4,8.8,30.17,ENE,67,0.0,0.0,89,0.00,,---,0.00,0.00,VWS V14.01,2013-12-27 06:35:00,
2013-12-27 00:37:00,11.4,8.8,30.17,ENE,67,0.0,0.0,89,0.00,,---,0.00,0.00,VWS V14.01,2013-12-27 06:37:00,
2013-12-27 00:40:00,11.3,8.7,30.17,ENE,67,0.0,0.0,89,0.00,,---,0.00,0.00,VWS V14.01,2013-12-27 06:40:00,
2013-12-27 00:42:00,11.3,8.7,30.17,ENE,67,0.0,0.0,89,0.00,,---,0.00,0.00,VWS V14.01,2013-12-27 06:42:00,
2013-12-27 00:45:00,11.1,8.5,30.17,ENE,67,0.0,0.0,89,0.00,,---,0.00,0.00,VWS V14.01,2013-12-27 06:45:00,
2013-12-27 00:47:00,11.1,8.5,30.17,ENE,67,0.0,0.0,89,0.00,,---,0.00,0.00,VWS V14.01,2013-12-27 06:47:00,
2013-12-27 00:50:00,11.0,8.6,30.17,ENE,67,0.0,0.0,90,0.00,,---,0.00,0.00,VWS V14.01,2013-12-27 06:50:00,
2013-12-27 00:52:00,11.0,8.6,30.17,ENE,67,0.0,0.0,90,0.00,,---,0.00,0.00,VWS V14.01,2013-12-27 06:52:00,
2013-12-27 00:55:00,10.9,8.6,30.17,ENE,67,0.0,0.0,90,0.00,,---,0.00,0.00,VWS V14.01,2013-12-27 06:55:00,
2013-12-27 00:57:00,10.9,8.6,30.17,ENE,67,0.0,0.0,90,0.00,,---,0.00,0.00,VWS V14.01,2013-12-27 06:57:00,
2013-12-27 01:00:00,10.9,8.6,30.17,ENE,67,0.0,0.0,90,0.00,,---,0.00,0.00,VWS V14.01,2013-12-27 07:00:00,
2013-12-27 01:02:00,10.9,8.6,30.17,ENE,67,0.0,0.0,90,0.00,,---,0.00,0.00,VWS V14.01,2013-12-27 07:02:00,
2013-12-27 01:05:00,10.8,8.2,30.17,ENE,67,0.0,0.0,89,0.00,,---,0.00,0.00,VWS V14.01,2013-12-27 07:05:00,
2013-12-27 01:10:00,10.6,8.0,30.17,ENE,67,0.0,0.0,89,0.00,,---,0.00,0.00,VWS V14.01,2013-12-27 07:10:00,
2013-12-27 01:12:00,10.6,8.0,30.17,ENE,67,0.0,0.0,89,0.00,,---,0.00,0.00,VWS V14.01,2013-12-27 07:12:00,
2013-12-27 01:15:00,10.4,7.8,30.17,ENE,67,0.0,0.0,89,0.00,,---,0.00,0.00,VWS V14.01,2013-12-27 07:15:00,
2013-12-27 01:17:00,10.4,7.8,30.17,ENE,67,0.0,0.0,89,0.00,,---,0.00,0.00,VWS V14.01,2013-12-27 07:17:00,
2013-12-27 01:20:00,10.3,7.7,30.17,ENE,67,0.0,0.0,89,0.00,,---,0.00,0.00,VWS V14.01,2013-12-27 07:20:00,
2013-12-27 01:22:00,10.3,7.7,30.17,ENE,67,0.0,0.0,89,0.00,,---,0.00,0.00,VWS V14.01,2013-12-27 07:22:00,
2013-12-27 01:25:00,10.2,7.6,30.17,ENE,67,0.0,0.0,89,0.00,,---,0.00,0.00,VWS V14.01,2013-12-27 07:25:00,
2013-12-27 01:27:00,10.2,7.6,30.17,ENE,67,0.0,0.0,89,0.00,,---,0.00,0.00,VWS V14.01,2013-12-27 07:27:00,
2013-12-27 01:30:00,10.1,7.5,30.17,ENE,67,0.0,0.0,89,0.00,,---,0.00,0.00,VWS V14.01,2013-12-27 07:30:00,
2013-12-27 01:32:00,10.1,7.5,30.17,ENE,67,0.0,0.0,89,0.00,,---,0.00,0.00,VWS V14.01,2013-12-27 07:32:00,
2013-12-27 01:35:00,10.0,7.4,30.17,ENE,67,0.0,0.0,89,0.00,,---,0.00,0.00,VWS V14.01,2013-12-27 07:35:00,
2013-12-27 01:37:00,10.0,7.4,30.17,ENE,67,0.0,0.0,89,0.00,,---,0.00,0.00,VWS V14.01,2013-12-27 07:37:00,
2013-12-27 01:40:00,10.1,7.5,30.16,ENE,67,0.0,0.0,89,0.00,,---,0.00,0.00,VWS V14.01,2013-12-27 07:40:00,
2013-12-27 01:42:00,10.1,7.5,30.16,ENE,67,0.0,0.0,89,0.00,,---,0.00,0.00,VWS V14.01,2013-12-27 07:42:00,
2013-12-27 01:45:00,10.1,7.5,30.16,ENE,67,0.0,0.0,89,0.00,,---,0.00,0.00,VWS V14.01,2013-12-27 07:45:00,
2013-12-27 01:47:00,10.1,7.5,30.16,ENE,67,0.0,0.0,89,0.00,,---,0.00,0.00,VWS V14.01,2013-12-27 07:47:00,
2013-12-27 01:50:00,10.0,7.4,30.16,ENE,67,0.0,0.0,89,0.00,,---,0.00,0.00,VWS V14.01,2013-12-27 07:50:00,
2013-12-27 01:52:00,10.0,7.4,30.16,ENE,67,0.0,0.0,89,0.00,,---,0.00,0.00,VWS V14.01,2013-12-27 07:52:00,
2013-12-27 01:55:00,10.1,7.5,30.15,ENE,67,0.0,0.0,89,0.00,,---,0.00,0.00,VWS V14.01,2013-12-27 07:55:00,
2013-12-27 01:57:00,10.1,7.5,30.15,ENE,67,0.0,0.0,89,0.00,,---,0.00,0.00,VWS V14.01,2013-12-27 07:57:00,
2013-12-27 02:00:00,10.0,7.4,30.15,ENE,67,0.0,0.0,89,0.00,,---,0.00,0.00,VWS V14.01,2013-12-27 08:00:00,
2013-12-27 02:02:00,10.0,7.4,30.15,ENE,67,0.0,0.0,89,0.00,,---,0.00,0.00,VWS V14.01,2013-12-27 08:02:00,
2013-12-27 02:05:00,9.9,7.3,30.15,ENE,67,0.0,0.0,89,0.00,,---,0.00,0.00,VWS V14.01,2013-12-27 08:05:00,
2013-12-27 02:10:00,9.6,7.0,30.15,ENE,67,0.0,0.0,89,0.00,,---,0.00,0.00,VWS V14.01,2013-12-27 08:10:00,
2013-12-27 02:12:00,9.6,7.0,30.15,ENE,67,0.0,0.0,89,0.00,,---,0.00,0.00,VWS V14.01,2013-12-27 08:12:00,
2013-12-27 02:15:00,9.4,6.8,30.15,ENE,67,0.0,0.0,89,0.00,,---,0.00,0.00,VWS V14.01,2013-12-27 08:15:00,
2013-12-27 02:17:00,9.4,6.8,30.15,ENE,67,0.0,0.0,89,0.00,,---,0.00,0.00,VWS V14.01,2013-12-27 08:17:00,
2013-12-27 02:20:00,9.4,6.8,30.15,ENE,67,0.0,0.0,89,0.00,,---,0.00,0.00,VWS V14.01,2013-12-27 08:20:00,
2013-12-27 02:22:00,9.4,6.8,30.15,ENE,67,0.0,0.0,89,0.00,,---,0.00,0.00,VWS V14.01,2013-12-27 08:22:00,
2013-12-27 02:25:00,9.4,6.8,30.15,ENE,67,0.0,0.0,89,0.00,,---,0.00,0.00,VWS V14.01,2013-12-27 08:25:00,
2013-12-27 02:27:00,9.4,6.8,30.15,ENE,67,0.0,0.0,89,0.00,,---,0.00,0.00,VWS V14.01,2013-12-27 08:27:00,
2013-12-27 02:30:00,9.4,6.8,30.15,ENE,67,0.0,0.0,89,0.00,,---,0.00,0.00,VWS V14.01,2013-12-27 08:30:00,
2013-12-27 02:32:00,9.4,6.8,30.15,ENE,67,0.0,0.0,89,0.00,,---,0.00,0.00,VWS V14.01,2013-12-27 08:32:00,
2013-12-27 02:35:00,9.3,6.7,30.16,ENE,67,0.0,0.0,89,0.00,,---,0.00,0.00,VWS V14.01,2013-12-27 08:35:00,
2013-12-27 02:37:00,9.3,6.7,30.16,ENE,67,0.0,0.0,89,0.00,,---,0.00,0.00,VWS V14.01,2013-12-27 08:37:00,
2013-12-27 02:40:00,9.4,6.8,30.15,ENE,67,0.0,0.0,89,0.00,,---,0.00,0.00,VWS V14.01,2013-12-27 08:40:00,
2013-12-27 02:42:00,9.4,6.8,30.15,ENE,67,0.0,0.0,89,0.00,,---,0.00,0.00,VWS V14.01,2013-12-27 08:42:00,
2013-12-27 02:45:00,9.4,6.8,30.15,ENE,67,0.0,0.0,89,0.00,,---,0.00,0.00,VWS V14.01,2013-12-27 08:45:00,
2013-12-27 02:47:00,9.4,6.8,30.15,ENE,67,0.0,0.0,89,0.00,,---,0.00,0.00,VWS V14.01,2013-12-27 08:47:00,
2013-12-27 02:50:00,9.6,7.0,30.15,ENE,67,0.0,0.0,89,0.00,,---,0.00,0.00,VWS V14.01,2013-12-27 08:50:00,
2013-12-27 02:52:00,9.6,7.0,30.15,ENE,67,0.0,0.0,89,0.00,,---,0.00,0.00,VWS V14.01,2013-12-27 08:52:00,
2013-12-27 02:55:00,9.6,7.0,30.15,ENE,67,0.0,0.0,89,0.00,,---,0.00,0.00,VWS V14.01,2013-12-27 08:55:00,
2013-12-27 02:57:00,9.6,7.0,30.15,ENE,67,0.0,0.0,89,0.00,,---,0.00,0.00,VWS V14.01,2013-12-27 08:57:00,
2013-12-27 03:00:00,9.7,7.1,30.15,ENE,67,0.0,0.0,89,0.00,,---,0.00,0.00,VWS V14.01,2013-12-27 09:00:00,
2013-12-27 03:02:00,9.7,7.1,30.15,ENE,67,0.0,0.0,89,0.00,,---,0.00,0.00,VWS V14.01,2013-12-27 09:02:00,
2013-12-27 03:05:00,9.9,7.3,30.16,ENE,67,0.0,0.0,89,0.00,,---,0.00,0.00,VWS V14.01,2013-12-27 09:05:00,
2013-12-27 03:10:00,10.1,7.5,30.15,ENE,67,0.0,0.0,89,0.00,,---,0.00,0.00,VWS V14.01,2013-12-27 09:10:00,
2013-12-27 03:12:00,10.1,7.5,30.15,ENE,67,0.0,0.0,89,0.00,,---,0.00,0.00,VWS V14.01,2013-12-27 09:12:00,
2013-12-27 03:15:00,10.3,7.7,30.15,ENE,67,0.0,0.0,89,0.00,,---,0.00,0.00,VWS V14.01,2013-12-27 09:15:00,
2013-12-27 03:17:00,10.3,7.7,30.15,ENE,67,0.0,0.0,89,0.00,,---,0.00,0.00,VWS V14.01,2013-12-27 09:17:00,
2013-12-27 03:20:00,10.5,7.9,30.15,ENE,67,0.0,0.0,89,0.00,,---,0.00,0.00,VWS V14.01,2013-12-27 09:20:00,
2013-12-27 03:22:00,10.5,7.9,30.15,ENE,67,0.0,0.0,89,0.00,,---,0.00,0.00,VWS V14.01,2013-12-27 09:22:00,
2013-12-27 03:25:00,10.8,8.2,30.15,ENE,67,0.0,0.0,89,0.00,,---,0.00,0.00,VWS V14.01,2013-12-27 09:25:00,
2013-12-27 03:27:00,10.8,8.2,30.15,ENE,67,0.0,0.0,89,0.00,,---,0.00,0.00,VWS V14.01,2013-12-27 09:27:00,
2013-12-27 03:30:00,11.1,8.8,30.15,ENE,67,0.0,0.0,90,0.00,,---,0.00,0.00,VWS V14.01,2013-12-27 09:30:00,
2013-12-27 03:32:00,11.1,8.8,30.15,ENE,67,0.0,0.0,90,0.00,,---,0.00,0.00,VWS V14.01,2013-12-27 09:32:00,
2013-12-27 03:35:00,12.0,9.6,30.14,ENE,67,0.0,0.0,90,0.00,,---,0.00,0.00,VWS V14.01,2013-12-27 09:35:00,
2013-12-27 03:37:00,12.0,9.6,30.14,ENE,67,0.0,0.0,90,0.00,,---,0.00,0.00,VWS V14.01,2013-12-27 09:37:00,
2013-12-27 03:40:00,12.8,10.4,30.14,ENE,67,0.0,0.0,90,0.00,,---,0.00,0.00,VWS V14.01,2013-12-27 09:40:00,
2013-12-27 03:42:00,12.8,10.4,30.14,ENE,67,0.0,0.0,90,0.00,,---,0.00,0.00,VWS V14.01,2013-12-27 09:42:00,
2013-12-27 03:45:00,13.5,11.1,30.15,ENE,67,0.0,0.0,90,0.00,,---,0.00,0.00,VWS V14.01,2013-12-27 09:45:00,
2013-12-27 03:47:00,13.5,11.1,30.15,ENE,67,0.0,0.0,90,0.00,,---,0.00,0.00,VWS V14.01,2013-12-27 09:47:00,
2013-12-27 03:50:00,14.1,11.7,30.15,ENE,67,0.0,0.0,90,0.00,,---,0.00,0.00,VWS V14.01,2013-12-27 09:50:00,
2013-12-27 03:52:00,14.1,11.7,30.15,ENE,67,0.0,0.0,90,0.00,,---,0.00,0.00,VWS V14.01,2013-12-27 09:52:00,
2013-12-27 03:55:00,14.8,12.6,30.14,ENE,68,0.0,2.0,91,0.00,,---,0.00,0.00,VWS V14.01,2013-12-27 09:55:00,
2013-12-27 03:57:00,14.8,12.6,30.14,ENE,68,0.0,2.0,91,0.00,,---,0.00,0.00,VWS V14.01,2013-12-27 09:57:00,
2013-12-27 04:00:00,15.4,13.2,30.15,ENE,68,0.0,1.0,91,0.00,,---,0.00,0.00,VWS V14.01,2013-12-27 10:00:00,
2013-12-27 04:02:00,15.4,13.2,30.15,ENE,68,0.0,1.0,91,0.00,,---,0.00,0.00,VWS V14.01,2013-12-27 10:02:00,
2013-12-27 04:05:00,15.9,13.7,30.15,ENE,68,0.0,0.0,91,0.00,,---,0.00,0.00,VWS V14.01,2013-12-27 10:05:00,
2013-12-27 04:10:00,16.5,14.3,30.14,ENE,68,2.0,2.0,91,0.00,,---,0.00,0.00,VWS V14.01,2013-12-27 10:10:00,
2013-12-27 04:12:00,16.5,14.3,30.14,ENE,68,2.0,2.0,91,0.00,,---,0.00,0.00,VWS V14.01,2013-12-27 10:12:00,
2013-12-27 04:15:00,16.9,14.7,30.14,ENE,68,2.0,3.0,91,0.00,,---,0.00,0.00,VWS V14.01,2013-12-27 10:15:00,
2013-12-27 04:17:00,16.9,14.7,30.14,ENE,68,2.0,3.0,91,0.00,,---,0.00,0.00,VWS V14.01,2013-12-27 10:17:00,
2013-12-27 04:20:00,17.3,15.1,30.14,ENE,68,2.0,3.0,91,0.00,,---,0.00,0.00,VWS V14.01,2013-12-27 10:20:00,
2013-12-27 04:22:00,17.3,15.1,30.14,ENE,68,2.0,3.0,91,0.00,,---,0.00,0.00,VWS V14.01,2013-12-27 10:22:00,
2013-12-27 04:25:00,17.7,15.8,30.14,ENE,76,0.0,3.0,92,0.00,,---,0.00,0.00,VWS V14.01,2013-12-27 10:25:00,
2013-12-27 04:27:00,17.7,15.8,30.14,ENE,76,0.0,3.0,92,0.00,,---,0.00,0.00,VWS V14.01,2013-12-27 10:27:00,
2013-12-27 04:30:00,18.0,15.8,30.13,ENE,76,1.0,2.0,91,0.00,,---,0.00,0.00,VWS V14.01,2013-12-27 10:30:00,
2013-12-27 04:32:00,18.0,15.8,30.13,ENE,76,1.0,2.0,91,0.00,,---,0.00,0.00,VWS V14.01,2013-12-27 10:32:00,
2013-12-27 04:35:00,18.2,16.0,30.13,ENE,76,0.0,1.0,91,0.00,,---,0.00,0.00,VWS V14.01,2013-12-27 10:35:00,
2013-12-27 04:37:00,18.2,16.0,30.13,ENE,76,0.0,1.0,91,0.00,,---,0.00,0.00,VWS V14.01,2013-12-27 10:37:00,
2013-12-27 04:40:00,18.4,16.5,30.13,ENE,76,0.0,0.0,92,0.00,,---,0.00,0.00,VWS V14.01,2013-12-27 10:40:00,
2013-12-27 04:42:00,18.4,16.5,30.13,ENE,76,0.0,0.0,92,0.00,,---,0.00,0.00,VWS V14.01,2013-12-27 10:42:00,
2013-12-27 04:45:00,18.8,16.9,30.13,ENE,76,2.0,2.0,92,0.00,,---,0.00,0.00,VWS V14.01,2013-12-27 10:45:00,
2013-12-27 04:47:00,18.8,16.9,30.13,ENE,76,2.0,2.0,92,0.00,,---,0.00,0.00,VWS V14.01,2013-12-27 10:47:00,
2013-12-27 04:50:00,19.1,17.2,30.12,ENE,75,0.0,2.0,92,0.00,,---,0.00,0.00,VWS V14.01,2013-12-27 10:50:00,
2013-12-27 04:52:00,19.1,17.2,30.12,ENE,75,0.0,2.0,92,0.00,,---,0.00,0.00,VWS V14.01,2013-12-27 10:52:00,
2013-12-27 04:55:00,19.4,17.5,30.12,ENE,76,1.0,1.0,92,0.00,,---,0.00,0.00,VWS V14.01,2013-12-27 10:55:00,
2013-12-27 04:57:00,19.4,17.5,30.12,ENE,76,1.0,1.0,92,0.00,,---,0.00,0.00,VWS V14.01,2013-12-27 10:57:00,
2013-12-27 05:00:00,19.7,17.8,30.12,ENE,75,0.0,2.0,92,0.00,,---,0.00,0.00,VWS V14.01,2013-12-27 11:00:00,
2013-12-27 05:02:00,19.7,17.8,30.12,ENE,75,0.0,2.0,92,0.00,,---,0.00,0.00,VWS V14.01,2013-12-27 11:02:00,
2013-12-27 05:05:00,19.7,17.8,30.12,ENE,76,0.0,0.0,92,0.00,,---,0.00,0.00,VWS V14.01,2013-12-27 11:05:00,
2013-12-27 05:10:00,19.9,18.0,30.12,ENE,76,0.0,2.0,92,0.00,,---,0.00,0.00,VWS V14.01,2013-12-27 11:10:00,
2013-12-27 05:12:00,19.9,18.0,30.12,ENE,76,0.0,2.0,92,0.00,,---,0.00,0.00,VWS V14.01,2013-12-27 11:12:00,
2013-12-27 05:15:00,20.1,18.1,30.12,ENE,75,0.0,2.0,92,0.00,,---,0.00,0.00,VWS V14.01,2013-12-27 11:15:00,
2013-12-27 05:17:00,20.1,18.1,30.12,ENE,75,0.0,2.0,92,0.00,,---,0.00,0.00,VWS V14.01,2013-12-27 11:17:00,
2013-12-27 05:20:00,20.3,18.4,30.11,ENE,75,0.0,1.0,92,0.00,,---,0.00,0.00,VWS V14.01,2013-12-27 11:20:00,
2013-12-27 05:22:00,20.3,18.4,30.11,ENE,75,0.0,1.0,92,0.00,,---,0.00,0.00,VWS V14.01,2013-12-27 11:22:00,
2013-12-27 05:25:00,20.4,18.5,30.11,ENE,76,0.0,1.0,92,0.00,,---,0.00,0.00,VWS V14.01,2013-12-27 11:25:00,
2013-12-27 05:27:00,20.4,18.5,30.11,ENE,76,0.0,1.0,92,0.00,,---,0.00,0.00,VWS V14.01,2013-12-27 11:27:00,
2013-12-27 05:30:00,20.6,18.6,30.10,ENE,76,0.0,3.0,92,0.00,,---,0.00,0.00,VWS V14.01,2013-12-27 11:30:00,
2013-12-27 05:32:00,20.6,18.6,30.10,ENE,76,0.0,3.0,92,0.00,,---,0.00,0.00,VWS V14.01,2013-12-27 11:32:00,
2013-12-27 05:35:00,20.8,18.9,30.10,ENE,76,0.0,2.0,92,0.00,,---,0.00,0.00,VWS V14.01,2013-12-27 11:35:00,
2013-12-27 05:37:00,20.8,18.9,30.10,ENE,76,0.0,2.0,92,0.00,,---,0.00,0.00,VWS V14.01,2013-12-27 11:37:00,
2013-12-27 05:40:00,21.0,19.0,30.10,ENE,76,0.0,3.0,92,0.00,,---,0.00,0.00,VWS V14.01,2013-12-27 11:40:00,
2013-12-27 05:42:00,21.0,19.0,30.10,ENE,76,0.0,3.0,92,0.00,,---,0.00,0.00,VWS V14.01,2013-12-27 11:42:00,
2013-12-27 05:45:00,21.2,19.2,30.10,SSE,152,1.0,5.0,92,0.00,,---,0.00,0.00,VWS V14.01,2013-12-27 11:45:00,
2013-12-27 05:47:00,21.2,19.2,30.10,SSE,152,1.0,5.0,92,0.00,,---,0.00,0.00,VWS V14.01,2013-12-27 11:47:00,
2013-12-27 05:50:00,21.3,19.3,30.10,SSE,152,1.0,2.0,92,0.00,,---,0.00,0.00,VWS V14.01,2013-12-27 11:50:00,
2013-12-27 05:52:00,21.3,19.3,30.10,SSE,152,1.0,2.0,92,0.00,,---,0.00,0.00,VWS V14.01,2013-12-27 11:52:00,
2013-12-27 05:55:00,21.6,19.6,30.10,SSE,152,1.0,3.0,92,0.00,,---,0.00,0.00,VWS V14.01,2013-12-27 11:55:00,
2013-12-27 05:57:00,21.6,19.6,30.10,SSE,152,1.0,3.0,92,0.00,,---,0.00,0.00,VWS V14.01,2013-12-27 11:57:00,
2013-12-27 06:00:00,21.9,19.9,30.10,SSE,152,0.0,2.0,92,0.00,,---,0.00,0.00,VWS V14.01,2013-12-27 12:00:00,
2013-12-27 06:02:00,21.9,19.9,30.10,SSE,152,0.0,2.0,92,0.00,,---,0.00,0.00,VWS V14.01,2013-12-27 12:02:00,
2013-12-27 06:05:00,22.1,20.1,30.10,SSE,152,1.0,3.0,92,0.00,,---,0.00,0.00,VWS V14.01,2013-12-27 12:05:00,
2013-12-27 06:10:00,22.3,20.3,30.10,SSE,152,0.0,3.0,92,0.00,,---,0.00,0.00,VWS V14.01,2013-12-27 12:10:00,
2013-12-27 06:12:00,22.3,20.3,30.10,SSE,152,0.0,3.0,92,0.00,,---,0.00,0.00,VWS V14.01,2013-12-27 12:12:00,
2013-12-27 06:15:00,22.4,20.4,30.10,SSE,152,0.0,2.0,92,0.00,,---,0.00,0.00,VWS V14.01,2013-12-27 12:15:00,
2013-12-27 06:17:00,22.4,20.4,30.10,SSE,152,0.0,2.0,92,0.00,,---,0.00,0.00,VWS V14.01,2013-12-27 12:17:00,
2013-12-27 06:20:00,22.4,20.4,30.10,SSE,152,0.0,2.0,92,0.00,,---,0.00,0.00,VWS V14.01,2013-12-27 12:20:00,
2013-12-27 06:22:00,22.4,20.4,30.10,SSE,152,0.0,2.0,92,0.00,,---,0.00,0.00,VWS V14.01,2013-12-27 12:22:00,
2013-12-27 06:25:00,22.5,20.5,30.10,SSE,152,0.0,3.0,92,0.00,,---,0.00,0.00,VWS V14.01,2013-12-27 12:25:00,
2013-12-27 06:27:00,22.5,20.5,30.10,SSE,152,0.0,3.0,92,0.00,,---,0.00,0.00,VWS V14.01,2013-12-27 12:27:00,
2013-12-27 06:30:00,22.6,20.6,30.09,SSE,152,0.0,2.0,92,0.00,,---,0.00,0.00,VWS V14.01,2013-12-27 12:30:00,
2013-12-27 06:32:00,22.6,20.6,30.09,SSE,152,0.0,2.0,92,0.00,,---,0.00,0.00,VWS V14.01,2013-12-27 12:32:00,
2013-12-27 06:35:00,22.6,20.6,30.09,SSE,152,0.0,4.0,92,0.00,,---,0.00,0.00,VWS V14.01,2013-12-27 12:35:00,
2013-12-27 06:37:00,22.6,20.6,30.09,SSE,152,0.0,4.0,92,0.00,,---,0.00,0.00,VWS V14.01,2013-12-27 12:37:00,
2013-12-27 06:40:00,22.5,20.5,30.09,SSE,152,0.0,2.0,92,0.00,,---,0.00,0.00,VWS V14.01,2013-12-27 12:40:00,
2013-12-27 06:42:00,22.5,20.5,30.09,SSE,152,0.0,2.0,92,0.00,,---,0.00,0.00,VWS V14.01,2013-12-27 12:42:00,
2013-12-27 06:45:00,22.4,20.4,30.08,SSE,148,0.0,2.0,92,0.00,,---,0.00,0.00,VWS V14.01,2013-12-27 12:45:00,
2013-12-27 06:47:00,22.4,20.4,30.08,SSE,148,0.0,2.0,92,0.00,,---,0.00,0.00,VWS V14.01,2013-12-27 12:47:00,
2013-12-27 06:50:00,22.3,20.3,30.08,SSE,148,0.0,3.0,92,0.00,,---,0.00,0.00,VWS V14.01,2013-12-27 12:50:00,
2013-12-27 06:52:00,22.3,20.3,30.08,SSE,148,0.0,3.0,92,0.00,,---,0.00,0.00,VWS V14.01,2013-12-27 12:52:00,
2013-12-27 06:55:00,22.2,20.2,30.08,SSE,148,0.0,2.0,92,0.00,,---,0.00,0.00,VWS V14.01,2013-12-27 12:55:00,
2013-12-27 06:57:00,22.2,20.2,30.08,SSE,148,0.0,2.0,92,0.00,,---,0.00,0.00,VWS V14.01,2013-12-27 12:57:00,
2013-12-27 07:00:00,22.3,20.3,30.08,SSE,148,0.0,1.0,92,0.00,,---,0.00,0.00,VWS V14.01,2013-12-27 13:00:00,
2013-12-27 07:02:00,22.3,20.3,30.08,SSE,148,0.0,1.0,92,0.00,,---,0.00,0.00,VWS V14.01,2013-12-27 13:02:00,
2013-12-27 07:05:00,22.4,20.4,30.08,SSE,148,1.0,3.0,92,0.00,,---,0.00,0.00,VWS V14.01,2013-12-27 13:05:00,
2013-12-27 07:10:00,22.4,20.4,30.08,SSE,148,2.0,3.0,92,0.00,,---,0.00,0.00,VWS V14.01,2013-12-27 13:10:00,
2013-12-27 07:12:00,22.4,20.4,30.08,SSE,148,2.0,3.0,92,0.00,,---,0.00,0.00,VWS V14.01,2013-12-27 13:12:00,
2013-12-27 07:15:00,22.3,20.3,30.07,SSE,148,0.0,3.0,92,0.00,,---,0.00,0.00,VWS V14.01,2013-12-27 13:15:00,
2013-12-27 07:17:00,22.3,20.3,30.07,SSE,148,0.0,3.0,92,0.00,,---,0.00,0.00,VWS V14.01,2013-12-27 13:17:00,
2013-12-27 07:20:00,22.4,20.4,30.07,SSE,148,1.0,4.0,92,0.00,,---,0.00,0.00,VWS V14.01,2013-12-27 13:20:00,
2013-12-27 07:22:00,22.4,20.4,30.07,SSE,148,1.0,4.0,92,0.00,,---,0.00,0.00,VWS V14.01,2013-12-27 13:22:00,
2013-12-27 07:25:00,22.6,20.6,30.07,SSE,148,3.0,3.0,92,0.00,,---,0.00,0.00,VWS V14.01,2013-12-27 13:25:00,
2013-12-27 07:27:00,22.6,20.6,30.07,SSE,148,3.0,3.0,92,0.00,,---,0.00,0.00,VWS V14.01,2013-12-27 13:27:00,
2013-12-27 07:30:00,22.7,20.7,30.06,SSE,148,4.0,4.0,92,0.00,,---,0.00,0.00,VWS V14.01,2013-12-27 13:30:00,
2013-12-27 07:32:00,22.7,20.7,30.06,SSE,148,4.0,4.0,92,0.00,,---,0.00,0.00,VWS V14.01,2013-12-27 13:32:00,
2013-12-27 07:35:00,22.8,20.8,30.06,SSE,148,1.0,4.0,92,0.00,,---,0.00,0.00,VWS V14.01,2013-12-27 13:35:00,
2013-12-27 07:37:00,22.8,20.8,30.06,SSE,148,1.0,4.0,92,0.00,,---,0.00,0.00,VWS V14.01,2013-12-27 13:37:00,
2013-12-27 07:40:00,22.9,20.9,30.06,SSE,148,0.0,3.0,92,0.00,,---,0.00,0.00,VWS V14.01,2013-12-27 13:40:00,
2013-12-27 07:42:00,22.9,20.9,30.06,SSE,148,0.0,3.0,92,0.00,,---,0.00,0.00,VWS V14.01,2013-12-27 13:42:00,
2013-12-27 07:45:00,23.1,21.4,30.06,SSE,148,1.0,3.0,93,0.00,,---,0.00,0.00,VWS V14.01,2013-12-27 13:45:00,
2013-12-27 07:47:00,23.1,21.4,30.06,SSE,148,1.0,3.0,93,0.00,,---,0.00,0.00,VWS V14.01,2013-12-27 13:47:00,
2013-12-27 07:50:00,23.2,21.5,30.06,SSE,148,2.0,4.0,93,0.00,,---,0.00,5.00,VWS V14.01,2013-12-27 13:50:00,
2013-12-27 07:52:00,23.2,21.5,30.06,SSE,148,2.0,4.0,93,0.00,,---,0.00,5.00,VWS V14.01,2013-12-27 13:52:00,
2013-12-27 07:55:00,23.4,21.7,30.05,SSE,148,1.0,4.0,93,0.00,,---,0.00,7.00,VWS V14.01,2013-12-27 13:55:00,
2013-12-27 07:57:00,23.4,21.7,30.05,SSE,148,1.0,4.0,93,0.00,,---,0.00,7.00,VWS V14.01,2013-12-27 13:57:00,
2013-12-27 08:00:00,23.6,21.9,30.05,SSE,147,2.0,5.0,93,0.00,,---,0.00,11.00,VWS V14.01,2013-12-27 14:00:00,
2013-12-27 08:02:00,23.6,21.9,30.05,SSE,147,2.0,5.0,93,0.00,,---,0.00,11.00,VWS V14.01,2013-12-27 14:02:00,
2013-12-27 08:05:00,23.8,22.1,30.05,SE,145,1.0,6.0,93,0.00,,---,0.00,16.00,VWS V14.01,2013-12-27 14:05:00,
2013-12-27 08:10:00,23.9,22.2,30.05,SE,134,2.0,5.0,93,0.00,,---,0.00,21.00,VWS V14.01,2013-12-27 14:10:00,
2013-12-27 08:12:00,23.9,22.2,30.05,SE,134,2.0,5.0,93,0.00,,---,0.00,21.00,VWS V14.01,2013-12-27 14:12:00,
2013-12-27 08:15:00,24.0,22.3,30.05,SE,136,0.0,4.0,93,0.00,,---,0.00,32.00,VWS V14.01,2013-12-27 14:15:00,
2013-12-27 08:17:00,24.0,22.3,30.05,SE,136,0.0,4.0,93,0.00,,---,0.00,32.00,VWS V14.01,2013-12-27 14:17:00,
2013-12-27 08:20:00,24.1,22.4,30.05,SE,137,0.0,4.0,93,0.00,,---,0.00,60.00,VWS V14.01,2013-12-27 14:20:00,
2013-12-27 08:22:00,24.1,22.4,30.05,SE,137,0.0,4.0,93,0.00,,---,0.00,60.00,VWS V14.01,2013-12-27 14:22:00,
2013-12-27 08:25:00,24.5,22.8,30.05,South,172,1.0,5.0,93,0.00,,---,0.00,47.00,VWS V14.01,2013-12-27 14:25:00,
2013-12-27 08:27:00,24.5,22.8,30.05,South,172,1.0,5.0,93,0.00,,---,0.00,47.00,VWS V14.01,2013-12-27 14:27:00,
2013-12-27 08:30:00,24.7,23.0,30.04,SE,134,3.0,4.0,93,0.00,,---,0.00,69.00,VWS V14.01,2013-12-27 14:30:00,
2013-12-27 08:32:00,24.7,23.0,30.04,SE,134,3.0,4.0,93,0.00,,---,0.00,69.00,VWS V14.01,2013-12-27 14:32:00,
2013-12-27 08:35:00,24.8,23.1,30.04,SE,137,1.0,4.0,93,0.00,,---,0.00,30.00,VWS V14.01,2013-12-27 14:35:00,
2013-12-27 08:37:00,24.8,23.1,30.04,SE,137,1.0,4.0,93,0.00,,---,0.00,30.00,VWS V14.01,2013-12-27 14:37:00,
2013-12-27 08:40:00,24.6,22.6,30.04,SSE,157,2.0,6.0,92,0.00,,---,0.00,32.00,VWS V14.01,2013-12-27 14:40:00,
2013-12-27 08:42:00,24.6,22.6,30.04,SSE,157,2.0,6.0,92,0.00,,---,0.00,32.00,VWS V14.01,2013-12-27 14:42:00,
2013-12-27 08:45:00,24.7,22.7,30.04,SE,142,2.0,4.0,92,0.00,,---,0.00,77.00,VWS V14.01,2013-12-27 14:45:00,
2013-12-27 08:47:00,24.7,22.7,30.04,SE,142,2.0,4.0,92,0.00,,---,0.00,77.00,VWS V14.01,2013-12-27 14:47:00,
2013-12-27 08:50:00,25.1,23.4,30.04,SSE,150,2.0,4.0,93,0.00,,---,0.00,109.00,VWS V14.01,2013-12-27 14:50:00,
2013-12-27 08:52:00,25.1,23.4,30.04,SSE,150,2.0,4.0,93,0.00,,---,0.00,109.00,VWS V14.01,2013-12-27 14:52:00,
2013-12-27 08:55:00,25.5,23.8,30.04,SSE,163,3.0,8.0,93,0.00,,---,0.00,111.00,VWS V14.01,2013-12-27 14:55:00,
2013-12-27 08:57:00,25.5,23.8,30.04,SSE,163,3.0,8.0,93,0.00,,---,0.00,111.00,VWS V14.01,2013-12-27 14:57:00,
2013-12-27 09:00:00,25.9,24.2,30.03,SSW,202,2.0,9.0,93,0.00,,---,0.00,146.00,VWS V14.01,2013-12-27 15:00:00,
2013-12-27 09:02:00,25.9,24.2,30.03,SSW,202,2.0,9.0,93,0.00,,---,0.00,146.00,VWS V14.01,2013-12-27 15:02:00,
2013-12-27 09:05:00,26.4,24.6,30.03,South,169,2.0,5.0,93,0.00,,---,0.00,160.00,VWS V14.01,2013-12-27 15:05:00,
2013-12-27 09:10:00,26.8,24.8,30.03,SSE,159,2.0,6.0,92,0.00,,---,0.00,155.00,VWS V14.01,2013-12-27 15:10:00,
2013-12-27 09:12:00,26.8,24.8,30.03,SSE,159,2.0,6.0,92,0.00,,---,0.00,155.00,VWS V14.01,2013-12-27 15:12:00,
2013-12-27 09:15:00,27.2,25.2,30.02,SSE,165,1.0,7.0,92,0.00,,---,0.00,186.00,VWS V14.01,2013-12-27 15:15:00,
2013-12-27 09:17:00,27.2,25.2,30.02,SSE,165,1.0,7.0,92,0.00,,---,0.00,186.00,VWS V14.01,2013-12-27 15:17:00,
2013-12-27 09:20:00,27.6,25.6,30.02,SE,144,3.0,4.0,92,0.00,,---,0.00,211.00,VWS V14.01,2013-12-27 15:20:00,
2013-12-27 09:22:00,27.6,25.6,30.02,SE,144,3.0,4.0,92,0.00,,---,0.00,211.00,VWS V14.01,2013-12-27 15:22:00,
2013-12-27 09:25:00,27.9,25.6,30.02,South,186,4.0,7.0,91,0.00,,---,0.00,234.00,VWS V14.01,2013-12-27 15:25:00,
2013-12-27 09:27:00,27.9,25.6,30.02,South,186,4.0,7.0,91,0.00,,---,0.00,234.00,VWS V14.01,2013-12-27 15:27:00,
2013-12-27 09:30:00,28.3,26.0,30.02,SSE,157,7.0,7.0,91,0.00,,---,0.00,236.00,VWS V14.01,2013-12-27 15:30:00,
2013-12-27 09:32:00,28.3,26.0,30.02,SSE,157,7.0,7.0,91,0.00,,---,0.00,236.00,VWS V14.01,2013-12-27 15:32:00,
2013-12-27 09:35:00,28.4,25.9,30.01,SE,132,3.0,9.0,90,0.00,,---,0.00,206.00,VWS V14.01,2013-12-27 15:35:00,
2013-12-27 09:37:00,28.4,25.9,30.01,SE,132,3.0,9.0,90,0.00,,---,0.00,206.00,VWS V14.01,2013-12-27 15:37:00,
2013-12-27 09:40:00,28.4,25.9,30.01,South,176,6.0,7.0,90,0.00,,---,0.00,174.00,VWS V14.01,2013-12-27 15:40:00,
2013-12-27 09:42:00,28.4,25.9,30.01,South,176,6.0,7.0,90,0.00,,---,0.00,174.00,VWS V14.01,2013-12-27 15:42:00,
2013-12-27 09:45:00,28.4,25.6,30.01,SSE,163,4.0,9.0,89,0.00,,---,0.00,178.00,VWS V14.01,2013-12-27 15:45:00,
2013-12-27 09:47:00,28.4,25.6,30.01,SSE,163,4.0,9.0,89,0.00,,---,0.00,178.00,VWS V14.01,2013-12-27 15:47:00,
2013-12-27 09:50:00,28.4,25.6,30.00,SE,138,6.0,9.0,89,0.00,,---,0.00,174.00,VWS V14.01,2013-12-27 15:50:00,
2013-12-27 09:52:00,28.4,25.6,30.00,SE,138,6.0,9.0,89,0.00,,---,0.00,174.00,VWS V14.01,2013-12-27 15:52:00,
2013-12-27 09:55:00,28.5,25.7,30.00,SSE,163,5.0,11.0,89,0.00,,---,0.00,172.00,VWS V14.01,2013-12-27 15:55:00,
2013-12-27 09:57:00,28.5,25.7,30.00,SSE,163,5.0,11.0,89,0.00,,---,0.00,172.00,VWS V14.01,2013-12-27 15:57:00,
2013-12-27 10:00:00,28.6,25.5,30.00,SSE,165,6.0,10.0,88,0.00,,---,0.00,162.00,VWS V14.01,2013-12-27 16:00:00,
2013-12-27 10:02:00,28.6,25.5,30.00,SSE,165,6.0,10.0,88,0.00,,---,0.00,162.00,VWS V14.01,2013-12-27 16:02:00,
2013-12-27 10:05:00,28.8,25.7,30.00,SSW,205,5.0,10.0,88,0.00,,---,0.00,151.00,VWS V14.01,2013-12-27 16:05:00,
2013-12-27 10:10:00,29.1,26.0,30.00,South,180,3.0,5.0,88,0.00,,---,0.00,171.00,VWS V14.01,2013-12-27 16:10:00,
2013-12-27 10:12:00,29.1,26.0,30.00,South,180,3.0,5.0,88,0.00,,---,0.00,171.00,VWS V14.01,2013-12-27 16:12:00,
2013-12-27 10:15:00,29.4,26.3,29.99,South,184,1.0,8.0,88,0.00,,---,0.00,197.00,VWS V14.01,2013-12-27 16:15:00,
2013-12-27 10:17:00,29.4,26.3,29.99,South,184,1.0,8.0,88,0.00,,---,0.00,197.00,VWS V14.01,2013-12-27 16:17:00,
2013-12-27 10:20:00,29.8,26.4,29.99,SW,219,1.0,5.0,87,0.00,,---,0.00,199.00,VWS V14.01,2013-12-27 16:20:00,
2013-12-27 10:22:00,29.8,26.4,29.99,SW,219,1.0,5.0,87,0.00,,---,0.00,199.00,VWS V14.01,2013-12-27 16:22:00,
2013-12-27 10:25:00,30.1,26.4,29.98,SSE,159,0.0,7.0,86,0.00,,---,0.00,192.00,VWS V14.01,2013-12-27 16:25:00,
2013-12-27 10:27:00,30.1,26.4,29.98,SSE,159,0.0,7.0,86,0.00,,---,0.00,192.00,VWS V14.01,2013-12-27 16:27:00,
2013-12-27 10:30:00,30.4,26.7,29.98,South,171,10.0,10.0,86,0.00,,---,0.00,197.00,VWS V14.01,2013-12-27 16:30:00,
2013-12-27 10:32:00,30.4,26.7,29.98,South,171,10.0,10.0,86,0.00,,---,0.00,197.00,VWS V14.01,2013-12-27 16:32:00,
2013-12-27 10:35:00,30.6,26.6,29.97,SSW,211,7.0,7.0,85,0.00,,---,0.00,188.00,VWS V14.01,2013-12-27 16:35:00,
2013-12-27 10:37:00,30.6,26.6,29.97,SSW,211,7.0,7.0,85,0.00,,---,0.00,188.00,VWS V14.01,2013-12-27 16:37:00,
2013-12-27 10:40:00,30.8,26.8,29.96,SW,225,1.0,9.0,85,0.00,,---,0.00,262.00,VWS V14.01,2013-12-27 16:40:00,
2013-12-27 10:42:00,30.8,26.8,29.96,SW,225,1.0,9.0,85,0.00,,---,0.00,262.00,VWS V14.01,2013-12-27 16:42:00,
2013-12-27 10:45:00,31.5,27.2,29.96,SSE,157,4.0,6.0,84,0.00,,---,0.00,385.00,VWS V14.01,2013-12-27 16:45:00,
2013-12-27 10:47:00,31.5,27.2,29.96,SSE,157,4.0,6.0,84,0.00,,---,0.00,385.00,VWS V14.01,2013-12-27 16:47:00,
2013-12-27 10:50:00,32.3,27.7,29.96,South,171,5.0,10.0,83,0.00,,---,0.00,485.00,VWS V14.01,2013-12-27 16:50:00,
2013-12-27 10:52:00,32.3,27.7,29.96,South,171,5.0,10.0,83,0.00,,---,0.00,485.00,VWS V14.01,2013-12-27 16:52:00,
2013-12-27 10:55:00,32.4,27.2,29.96,SE,125,3.0,10.0,81,0.00,,---,0.00,178.00,VWS V14.01,2013-12-27 16:55:00,
2013-12-27 10:57:00,32.4,27.2,29.96,SE,125,3.0,10.0,81,0.00,,---,0.00,178.00,VWS V14.01,2013-12-27 16:57:00,
2013-12-27 11:00:00,32.4,27.2,29.95,South,178,4.0,9.0,81,0.00,,---,0.00,156.00,VWS V14.01,2013-12-27 17:00:00,
2013-12-27 11:02:00,32.4,27.2,29.95,South,178,4.0,9.0,81,0.00,,---,0.00,156.00,VWS V14.01,2013-12-27 17:02:00,
2013-12-27 11:05:00,32.4,27.2,29.95,South,178,10.0,11.0,81,0.00,,---,0.00,149.00,VWS V14.01,2013-12-27 17:05:00,
2013-12-27 11:10:00,32.5,27.0,29.94,SSW,206,5.0,10.0,80,0.00,,---,0.00,153.00,VWS V14.01,2013-12-27 17:10:00,
2013-12-27 11:12:00,32.5,27.0,29.94,SSW,206,5.0,10.0,80,0.00,,---,0.00,153.00,VWS V14.01,2013-12-27 17:12:00,
2013-12-27 11:15:00,32.7,27.2,29.94,SSE,166,5.0,9.0,80,0.00,,---,0.00,183.00,VWS V14.01,2013-12-27 17:15:00,
2013-12-27 11:17:00,32.7,27.2,29.94,SSE,166,5.0,9.0,80,0.00,,---,0.00,183.00,VWS V14.01,2013-12-27 17:17:00,
2013-12-27 11:20:00,32.9,27.1,29.93,South,172,5.0,14.0,79,0.00,,---,0.00,181.00,VWS V14.01,2013-12-27 17:20:00,
2013-12-27 11:22:00,32.9,27.1,29.93,South,172,5.0,14.0,79,0.00,,---,0.00,181.00,VWS V14.01,2013-12-27 17:22:00,
2013-12-27 11:25:00,33.2,27.1,29.93,SE,145,4.0,12.0,78,0.00,,---,0.00,167.00,VWS V14.01,2013-12-27 17:25:00,
2013-12-27 11:27:00,33.2,27.1,29.93,SE,145,4.0,12.0,78,0.00,,---,0.00,167.00,VWS V14.01,2013-12-27 17:27:00,
2013-12-27 11:30:00,33.5,27.4,29.93,SSW,210,2.0,14.0,78,0.00,,---,0.00,167.00,VWS V14.01,2013-12-27 17:30:00,
2013-12-27 11:32:00,33.5,27.4,29.93,SSW,210,2.0,14.0,78,0.00,,---,0.00,167.00,VWS V14.01,2013-12-27 17:32:00,
2013-12-27 11:35:00,33.9,27.5,29.93,SSW,207,12.0,14.0,77,0.00,,---,0.00,178.00,VWS V14.01,2013-12-27 17:35:00,
2013-12-27 11:37:00,33.9,27.5,29.93,SSW,207,12.0,14.0,77,0.00,,---,0.00,178.00,VWS V14.01,2013-12-27 17:37:00,
2013-12-27 11:40:00,34.4,27.6,29.93,SW,236,10.0,15.0,76,0.00,,---,0.00,207.00,VWS V14.01,2013-12-27 17:40:00,
2013-12-27 11:42:00,34.4,27.6,29.93,SW,236,10.0,15.0,76,0.00,,---,0.00,207.00,VWS V14.01,2013-12-27 17:42:00,
2013-12-27 11:45:00,34.4,27.3,29.93,WSW,245,10.0,13.0,75,0.00,,---,0.00,195.00,VWS V14.01,2013-12-27 17:45:00,
2013-12-27 11:47:00,34.4,27.3,29.93,WSW,245,10.0,13.0,75,0.00,,---,0.00,195.00,VWS V14.01,2013-12-27 17:47:00,
2013-12-27 11:50:00,34.6,27.5,29.92,SW,216,11.0,15.0,75,0.00,,---,0.00,181.00,VWS V14.01,2013-12-27 17:50:00,
2013-12-27 11:52:00,34.6,27.5,29.92,SW,216,11.0,15.0,75,0.00,,---,0.00,181.00,VWS V14.01,2013-12-27 17:52:00,
2013-12-27 11:55:00,34.6,27.2,29.91,SW,226,7.0,19.0,74,0.00,,---,0.00,183.00,VWS V14.01,2013-12-27 17:55:00,
2013-12-27 11:57:00,34.6,27.2,29.91,SW,226,7.0,19.0,74,0.00,,---,0.00,183.00,VWS V14.01,2013-12-27 17:57:00,
2013-12-27 12:00:00,34.7,27.3,29.91,SW,219,7.0,12.0,74,0.00,,---,0.00,204.00,VWS V14.01,2013-12-27 18:00:00,
2013-12-27 12:02:00,34.7,27.3,29.91,SW,219,7.0,12.0,74,0.00,,---,0.00,204.00,VWS V14.01,2013-12-27 18:02:00,
2013-12-27 12:05:00,34.8,27.4,29.91,SW,218,7.0,15.0,74,0.00,,---,0.00,211.00,VWS V14.01,2013-12-27 18:05:00,
2013-12-27 12:10:00,34.8,27.4,29.91,SSW,210,9.0,15.0,74,0.00,,---,0.00,221.00,VWS V14.01,2013-12-27 18:10:00,
2013-12-27 12:12:00,34.8,27.4,29.91,SSW,210,9.0,15.0,74,0.00,,---,0.00,221.00,VWS V14.01,2013-12-27 18:12:00,
2013-12-27 12:15:00,34.9,27.5,29.91,SSW,200,4.0,17.0,74,0.00,,---,0.00,288.00,VWS V14.01,2013-12-27 18:15:00,
2013-12-27 12:17:00,34.9,27.5,29.91,SSW,200,4.0,17.0,74,0.00,,---,0.00,288.00,VWS V14.01,2013-12-27 18:17:00,
2013-12-27 12:20:00,35.1,27.3,29.91,SSW,202,10.0,17.0,73,0.00,,---,0.00,264.00,VWS V14.01,2013-12-27 18:20:00,
2013-12-27 12:22:00,35.1,27.3,29.91,SSW,202,10.0,17.0,73,0.00,,---,0.00,264.00,VWS V14.01,2013-12-27 18:22:00,
2013-12-27 12:25:00,35.2,27.4,29.91,SW,221,10.0,15.0,73,0.00,,---,0.00,214.00,VWS V14.01,2013-12-27 18:25:00,
2013-12-27 12:27:00,35.2,27.4,29.91,SW,221,10.0,15.0,73,0.00,,---,0.00,214.00,VWS V14.01,2013-12-27 18:27:00,
2013-12-27 12:30:00,35.2,27.4,29.91,SSW,211,8.0,14.0,73,0.00,,---,0.00,239.00,VWS V14.01,2013-12-27 18:30:00,
2013-12-27 12:32:00,35.2,27.4,29.91,SSW,211,8.0,14.0,73,0.00,,---,0.00,239.00,VWS V14.01,2013-12-27 18:32:00,
2013-12-27 12:35:00,35.3,27.5,29.90,SW,236,11.0,14.0,73,0.00,,---,0.00,211.00,VWS V14.01,2013-12-27 18:35:00,
2013-12-27 12:37:00,35.3,27.5,29.90,SW,236,11.0,14.0,73,0.00,,---,0.00,211.00,VWS V14.01,2013-12-27 18:37:00,
2013-12-27 12:40:00,35.5,27.7,29.90,SW,229,10.0,14.0,73,0.00,,---,0.00,304.00,VWS V14.01,2013-12-27 18:40:00,
2013-12-27 12:42:00,35.5,27.7,29.90,SW,229,10.0,14.0,73,0.00,,---,0.00,304.00,VWS V14.01,2013-12-27 18:42:00,
2013-12-27 12:45:00,35.8,28.0,29.89,WSW,244,9.0,15.0,73,0.00,,---,0.00,367.00,VWS V14.01,2013-12-27 18:45:00,
2013-12-27 12:47:00,35.8,28.0,29.89,WSW,244,9.0,15.0,73,0.00,,---,0.00,367.00,VWS V14.01,2013-12-27 18:47:00,
2013-12-27 12:50:00,36.2,28.1,29.90,WSW,241,14.0,19.0,72,0.00,,---,0.00,348.00,VWS V14.01,2013-12-27 18:50:00,
2013-12-27 12:52:00,36.2,28.1,29.90,WSW,241,14.0,19.0,72,0.00,,---,0.00,348.00,VWS V14.01,2013-12-27 18:52:00,
2013-12-27 12:55:00,36.4,28.2,29.90,SW,218,13.0,19.0,72,0.00,,---,0.00,378.00,VWS V14.01,2013-12-27 18:55:00,
2013-12-27 12:57:00,36.4,28.2,29.90,SW,218,13.0,19.0,72,0.00,,---,0.00,378.00,VWS V14.01,2013-12-27 18:57:00,
2013-12-27 13:00:00,36.8,28.6,29.89,SSW,203,9.0,16.0,72,0.00,,---,0.00,383.00,VWS V14.01,2013-12-27 19:00:00,
2013-12-27 13:02:00,36.8,28.6,29.89,SSW,203,9.0,16.0,72,0.00,,---,0.00,383.00,VWS V14.01,2013-12-27 19:02:00,
2013-12-27 13:05:00,37.1,28.6,29.90,SW,234,11.0,19.0,71,0.00,,---,0.00,439.00,VWS V14.01,2013-12-27 19:05:00,
2013-12-27 13:10:00,37.4,28.9,29.89,WSW,257,9.0,17.0,71,0.00,,---,0.00,464.00,VWS V14.01,2013-12-27 19:10:00,
2013-12-27 13:12:00,37.4,28.9,29.89,WSW,257,9.0,17.0,71,0.00,,---,0.00,464.00,VWS V14.01,2013-12-27 19:12:00,
2013-12-27 13:15:00,37.7,29.2,29.89,SW,218,6.0,16.0,71,0.00,,---,0.00,443.00,VWS V14.01,2013-12-27 19:15:00,
2013-12-27 13:17:00,37.7,29.2,29.89,SW,218,6.0,16.0,71,0.00,,---,0.00,443.00,VWS V14.01,2013-12-27 19:17:00,
2013-12-27 13:20:00,37.9,29.4,29.89,SW,225,11.0,13.0,71,0.00,,---,0.00,431.00,VWS V14.01,2013-12-27 19:20:00,
2013-12-27 13:22:00,37.9,29.4,29.89,SW,225,11.0,13.0,71,0.00,,---,0.00,431.00,VWS V14.01,2013-12-27 19:22:00,
2013-12-27 13:25:00,38.2,29.6,29.88,SW,232,7.0,16.0,71,0.01,,---,0.01,425.00,VWS V14.01,2013-12-27 19:25:00,
2013-12-27 13:27:00,38.2,29.6,29.88,SW,232,7.0,16.0,71,0.01,,---,0.01,425.00,VWS V14.01,2013-12-27 19:27:00,
2013-12-27 13:30:00,38.6,30.0,29.88,SW,224,12.0,15.0,71,0.01,,---,0.01,381.00,VWS V14.01,2013-12-27 19:30:00,
2013-12-27 13:32:00,38.6,30.0,29.88,SW,224,12.0,15.0,71,0.01,,---,0.01,381.00,VWS V14.01,2013-12-27 19:32:00,
2013-12-27 13:35:00,38.8,30.2,29.88,SW,227,6.0,16.0,71,0.01,,---,0.01,355.00,VWS V14.01,2013-12-27 19:35:00,
2013-12-27 13:37:00,38.8,30.2,29.88,SW,227,6.0,16.0,71,0.01,,---,0.01,355.00,VWS V14.01,2013-12-27 19:37:00,
2013-12-27 13:40:00,38.9,30.3,29.88,SW,230,7.0,17.0,71,0.01,,---,0.01,290.00,VWS V14.01,2013-12-27 19:40:00,
2013-12-27 13:42:00,38.9,30.3,29.88,SW,230,7.0,17.0,71,0.01,,---,0.01,290.00,VWS V14.01,2013-12-27 19:42:00,
2013-12-27 13:45:00,38.9,30.0,29.88,SSW,198,11.0,17.0,70,0.01,,---,0.01,301.00,VWS V14.01,2013-12-27 19:45:00,
2013-12-27 13:47:00,38.9,30.0,29.88,SSW,198,11.0,17.0,70,0.01,,---,0.01,301.00,VWS V14.01,2013-12-27 19:47:00,
2013-12-27 13:50:00,38.7,30.1,29.88,WSW,246,14.0,22.0,71,0.01,,---,0.01,185.00,VWS V14.01,2013-12-27 19:50:00,
2013-12-27 13:52:00,38.7,30.1,29.88,WSW,246,14.0,22.0,71,0.01,,---,0.01,185.00,VWS V14.01,2013-12-27 19:52:00,
2013-12-27 13:55:00,38.4,30.2,29.88,SW,217,20.0,20.0,72,0.01,,---,0.01,278.00,VWS V14.01,2013-12-27 19:55:00,
2013-12-27 13:57:00,38.4,30.2,29.88,SW,217,20.0,20.0,72,0.01,,---,0.01,278.00,VWS V14.01,2013-12-27 19:57:00,
2013-12-27 14:00:00,38.3,30.1,29.88,SW,226,9.0,20.0,72,0.01,,---,0.01,257.00,VWS V14.01,2013-12-27 20:00:00,
2013-12-27 14:02:00,38.3,30.1,29.88,SW,226,9.0,20.0,72,0.01,,---,0.01,257.00,VWS V14.01,2013-12-27 20:02:00,
2013-12-27 14:05:00,38.3,30.4,29.88,SW,231,7.0,15.0,73,0.01,,---,0.01,236.00,VWS V14.01,2013-12-27 20:05:00,
2013-12-27 14:10:00,38.3,30.1,29.88,WSW,252,15.0,26.0,72,0.01,,---,0.01,243.00,VWS V14.01,2013-12-27 20:10:00,
2013-12-27 14:12:00,38.3,30.1,29.88,WSW,252,15.0,26.0,72,0.01,,---,0.01,243.00,VWS V14.01,2013-12-27 20:12:00,
2013-12-27 14:15:00,38.3,30.1,29.88,SSW,200,6.0,17.0,72,0.01,,---,0.01,220.00,VWS V14.01,2013-12-27 20:15:00,
2013-12-27 14:17:00,38.3,30.1,29.88,SSW,200,6.0,17.0,72,0.01,,---,0.01,220.00,VWS V14.01,2013-12-27 20:17:00,
2013-12-27 14:20:00,38.3,30.4,29.88,SW,217,9.0,17.0,73,0.01,,---,0.01,185.00,VWS V14.01,2013-12-27 20:20:00,
2013-12-27 14:22:00,38.3,30.4,29.88,SW,217,9.0,17.0,73,0.01,,---,0.01,185.00,VWS V14.01,2013-12-27 20:22:00,
2013-12-27 14:25:00,38.2,30.3,29.88,SW,227,3.0,16.0,73,0.02,,---,0.02,197.00,VWS V14.01,2013-12-27 20:25:00,
2013-12-27 14:27:00,38.2,30.3,29.88,SW,227,3.0,16.0,73,0.02,,---,0.02,197.00,VWS V14.01,2013-12-27 20:27:00,
2013-12-27 14:30:00,38.2,30.3,29.88,SW,232,11.0,14.0,73,0.01,,---,0.02,221.00,VWS V14.01,2013-12-27 20:30:00,
2013-12-27 14:32:00,38.2,30.3,29.88,SW,232,11.0,14.0,73,0.01,,---,0.02,221.00,VWS V14.01,2013-12-27 20:32:00,
2013-12-27 14:35:00,38.4,30.5,29.88,SW,217,12.0,13.0,73,0.02,,---,0.03,199.00,VWS V14.01,2013-12-27 20:35:00,
2013-12-27 14:37:00,38.4,30.5,29.88,SW,217,12.0,13.0,73,0.02,,---,0.03,199.00,VWS V14.01,2013-12-27 20:37:00,
2013-12-27 14:40:00,38.6,30.7,29.88,WSW,239,10.0,15.0,73,0.02,,---,0.03,199.00,VWS V14.01,2013-12-27 20:40:00,
2013-12-27 14:42:00,38.6,30.7,29.88,WSW,239,10.0,15.0,73,0.02,,---,0.03,199.00,VWS V14.01,2013-12-27 20:42:00,
2013-12-27 14:45:00,38.7,30.8,29.88,SW,219,10.0,15.0,73,0.03,,---,0.04,171.00,VWS V14.01,2013-12-27 20:45:00,
2013-12-27 14:47:00,38.7,30.8,29.88,SW,219,10.0,15.0,73,0.03,,---,0.04,171.00,VWS V14.01,2013-12-27 20:47:00,
2013-12-27 14:50:00,38.8,30.9,29.88,SW,219,6.0,16.0,73,0.03,,---,0.04,181.00,VWS V14.01,2013-12-27 20:50:00,
2013-12-27 14:52:00,38.8,30.9,29.88,SW,219,6.0,16.0,73,0.03,,---,0.04,181.00,VWS V14.01,2013-12-27 20:52:00,
2013-12-27 14:55:00,39.0,31.1,29.88,SW,222,5.0,12.0,73,0.04,,---,0.05,207.00,VWS V14.01,2013-12-27 20:55:00,
2013-12-27 14:57:00,39.0,31.1,29.88,SW,222,5.0,12.0,73,0.04,,---,0.05,207.00,VWS V14.01,2013-12-27 20:57:00,
2013-12-27 15:00:00,39.3,31.0,29.88,WSW,241,7.0,12.0,72,0.04,,---,0.05,209.00,VWS V14.01,2013-12-27 21:00:00,
2013-12-27 15:02:00,39.3,31.0,29.88,WSW,241,7.0,12.0,72,0.04,,---,0.05,209.00,VWS V14.01,2013-12-27 21:02:00,
2013-12-27 15:05:00,39.6,31.3,29.88,WSW,245,4.0,11.0,72,0.05,,---,0.06,192.00,VWS V14.01,2013-12-27 21:05:00,
2013-12-27 15:10:00,39.7,31.4,29.88,SW,229,11.0,11.0,72,0.06,,---,0.07,172.00,VWS V14.01,2013-12-27 21:10:00,
2013-12-27 15:12:00,39.7,31.4,29.88,SW,229,11.0,11.0,72,0.06,,---,0.07,172.00,VWS V14.01,2013-12-27 21:12:00,
2013-12-27 15:15:00,39.4,31.1,29.88,WSW,237,11.0,15.0,72,0.06,,---,0.07,114.00,VWS V14.01,2013-12-27 21:15:00,
2013-12-27 15:17:00,39.4,31.1,29.88,WSW,237,11.0,15.0,72,0.06,,---,0.07,114.00,VWS V14.01,2013-12-27 21:17:00,
2013-12-27 15:20:00,39.1,30.9,29.89,SW,234,8.0,15.0,72,0.07,,---,0.08,125.00,VWS V14.01,2013-12-27 21:20:00,
2013-12-27 15:22:00,39.1,30.9,29.89,SW,234,8.0,15.0,72,0.07,,---,0.08,125.00,VWS V14.01,2013-12-27 21:22:00,
2013-12-27 15:25:00,39.0,31.1,29.89,SSW,198,7.0,14.0,73,0.07,,---,0.08,111.00,VWS V14.01,2013-12-27 21:25:00,
2013-12-27 15:27:00,39.0,31.1,29.89,SSW,198,7.0,14.0,73,0.07,,---,0.08,111.00,VWS V14.01,2013-12-27 21:27:00,
2013-12-27 15:30:00,38.8,30.9,29.89,SSW,209,9.0,12.0,73,0.07,,---,0.09,100.00,VWS V14.01,2013-12-27 21:30:00,
2013-12-27 15:32:00,38.8,30.9,29.89,SSW,209,9.0,12.0,73,0.07,,---,0.09,100.00,VWS V14.01,2013-12-27 21:32:00,
2013-12-27 15:35:00,38.7,30.8,29.89,WSW,255,4.0,11.0,73,0.07,,---,0.09,74.00,VWS V14.01,2013-12-27 21:35:00,
2013-12-27 15:37:00,38.7,30.8,29.89,WSW,255,4.0,11.0,73,0.07,,---,0.09,74.00,VWS V14.01,2013-12-27 21:37:00,
2013-12-27 15:40:00,38.5,31.0,29.89,SW,222,6.0,10.0,74,0.06,,---,0.09,49.00,VWS V14.01,2013-12-27 21:40:00,
2013-12-27 15:42:00,38.5,31.0,29.89,SW,222,6.0,10.0,74,0.06,,---,0.09,49.00,VWS V14.01,2013-12-27 21:42:00,
2013-12-27 15:45:00,38.3,30.8,29.90,SW,225,8.0,13.0,74,0.07,,---,0.10,62.00,VWS V14.01,2013-12-27 21:45:00,
2013-12-27 15:47:00,38.3,30.8,29.90,SW,225,8.0,13.0,74,0.07,,---,0.10,62.00,VWS V14.01,2013-12-27 21:47:00,
2013-12-27 15:50:00,38.1,30.9,29.90,SW,227,9.0,14.0,75,0.06,,---,0.10,37.00,VWS V14.01,2013-12-27 21:50:00,
2013-12-27 15:52:00,38.1,30.9,29.90,SW,227,9.0,14.0,75,0.06,,---,0.10,37.00,VWS V14.01,2013-12-27 21:52:00,
2013-12-27 15:55:00,37.9,30.7,29.89,West,265,4.0,13.0,75,0.06,,---,0.10,35.00,VWS V14.01,2013-12-27 21:55:00,
2013-12-27 15:57:00,37.9,30.7,29.89,West,265,4.0,13.0,75,0.06,,---,0.10,35.00,VWS V14.01,2013-12-27 21:57:00,
2013-12-27 16:00:00,37.6,30.7,29.90,SSW,211,9.0,11.0,76,0.05,,---,0.10,30.00,VWS V14.01,2013-12-27 22:00:00,
2013-12-27 16:02:00,37.6,30.7,29.90,SSW,211,9.0,11.0,76,0.05,,---,0.10,30.00,VWS V14.01,2013-12-27 22:02:00,
2013-12-27 16:05:00,37.4,30.5,29.89,WSW,245,6.0,10.0,76,0.05,,---,0.10,26.00,VWS V14.01,2013-12-27 22:05:00,
2013-12-27 16:10:00,37.3,30.8,29.90,SSW,205,7.0,10.0,77,0.04,,---,0.10,21.00,VWS V14.01,2013-12-27 22:10:00,
2013-12-27 16:12:00,37.3,30.8,29.90,SSW,205,7.0,10.0,77,0.04,,---,0.10,21.00,VWS V14.01,2013-12-27 22:12:00,
2013-12-27 16:15:00,37.2,30.7,29.90,WSW,239,4.0,9.0,77,0.04,,---,0.11,16.00,VWS V14.01,2013-12-27 22:15:00,
2013-12-27 16:17:00,37.2,30.7,29.90,WSW,239,4.0,9.0,77,0.04,,---,0.11,16.00,VWS V14.01,2013-12-27 22:17:00,
2013-12-27 16:20:00,37.0,30.5,29.90,SW,236,4.0,8.0,77,0.04,,---,0.11,11.00,VWS V14.01,2013-12-27 22:20:00,
2013-12-27 16:22:00,37.0,30.5,29.90,SW,236,4.0,8.0,77,0.04,,---,0.11,11.00,VWS V14.01,2013-12-27 22:22:00,
2013-12-27 16:25:00,36.9,30.7,29.90,WSW,240,3.0,9.0,78,0.03,,---,0.11,7.00,VWS V14.01,2013-12-27 22:25:00,
2013-12-27 16:27:00,36.9,30.7,29.90,WSW,240,3.0,9.0,78,0.03,,---,0.11,7.00,VWS V14.01,2013-12-27 22:27:00,
2013-12-27 16:30:00,36.7,30.5,29.91,SW,234,5.0,9.0,78,0.03,,---,0.11,5.00,VWS V14.01,2013-12-27 22:30:00,
2013-12-27 16:32:00,36.7,30.5,29.91,SW,234,5.0,9.0,78,0.03,,---,0.11,5.00,VWS V14.01,2013-12-27 22:32:00,
2013-12-27 16:35:00,36.6,30.7,29.91,WSW,239,5.0,7.0,79,0.02,,---,0.11,0.00,VWS V14.01,2013-12-27 22:35:00,
2013-12-27 16:37:00,36.6,30.7,29.91,WSW,239,5.0,7.0,79,0.02,,---,0.11,0.00,VWS V14.01,2013-12-27 22:37:00,
2013-12-27 16:40:00,36.5,30.6,29.91,SW,236,5.0,8.0,79,0.02,,---,0.11,0.00,VWS V14.01,2013-12-27 22:40:00,
2013-12-27 16:42:00,36.5,30.6,29.91,SW,236,5.0,8.0,79,0.02,,---,0.11,0.00,VWS V14.01,2013-12-27 22:42:00,
2013-12-27 16:45:00,36.3,30.4,29.91,SW,232,2.0,5.0,79,0.02,,---,0.11,5.00,VWS V14.01,2013-12-27 22:45:00,
2013-12-27 16:47:00,36.3,30.4,29.91,SW,232,2.0,5.0,79,0.02,,---,0.11,5.00,VWS V14.01,2013-12-27 22:47:00,
2013-12-27 16:50:00,36.2,30.3,29.91,SSW,209,3.0,7.0,79,0.01,,---,0.11,0.00,VWS V14.01,2013-12-27 22:50:00,
2013-12-27 16:52:00,36.2,30.3,29.91,SSW,209,3.0,7.0,79,0.01,,---,0.11,0.00,VWS V14.01,2013-12-27 22:52:00,
2013-12-27 16:55:00,36.1,30.2,29.91,SW,225,6.0,8.0,79,0.01,,---,0.11,0.00,VWS V14.01,2013-12-27 22:55:00,
2013-12-27 16:57:00,36.1,30.2,29.91,SW,225,6.0,8.0,79,0.01,,---,0.11,0.00,VWS V14.01,2013-12-27 22:57:00,
2013-12-27 17:00:00,36.1,30.2,29.92,SW,235,5.0,8.0,79,0.01,,---,0.11,0.00,VWS V14.01,2013-12-27 23:00:00,
2013-12-27 17:02:00,36.1,30.2,29.92,SW,235,5.0,8.0,79,0.01,,---,0.11,0.00,VWS V14.01,2013-12-27 23:02:00,
2013-12-27 17:05:00,36.0,30.4,29.91,SW,214,4.0,7.0,80,0.01,,---,0.11,0.00,VWS V14.01,2013-12-27 23:05:00,
2013-12-27 17:10:00,35.9,30.3,29.91,SSW,210,4.0,7.0,80,0.01,,---,0.11,0.00,VWS V14.01,2013-12-27 23:10:00,
2013-12-27 17:12:00,35.9,30.3,29.91,SSW,210,4.0,7.0,80,0.01,,---,0.11,0.00,VWS V14.01,2013-12-27 23:12:00,
2013-12-27 17:15:00,35.8,30.2,29.91,SW,221,4.0,8.0,80,0.01,,---,0.11,0.00,VWS V14.01,2013-12-27 23:15:00,
2013-12-27 17:17:00,35.8,30.2,29.91,SW,221,4.0,8.0,80,0.01,,---,0.11,0.00,VWS V14.01,2013-12-27 23:17:00,
2013-12-27 17:20:00,35.7,30.5,29.91,SSW,205,6.0,8.0,81,0.00,,---,0.11,0.00,VWS V14.01,2013-12-27 23:20:00,
2013-12-27 17:22:00,35.7,30.5,29.91,SSW,205,6.0,8.0,81,0.00,,---,0.11,0.00,VWS V14.01,2013-12-27 23:22:00,
2013-12-27 17:25:00,35.7,30.5,29.92,SW,231,7.0,9.0,81,0.00,,---,0.11,0.00,VWS V14.01,2013-12-27 23:25:00,
2013-12-27 17:27:00,35.7,30.5,29.92,SW,231,7.0,9.0,81,0.00,,---,0.11,0.00,VWS V14.01,2013-12-27 23:27:00,
2013-12-27 17:30:00,35.6,30.4,29.92,SW,217,7.0,9.0,81,0.00,,---,0.11,0.00,VWS V14.01,2013-12-27 23:30:00,
2013-12-27 17:32:00,35.6,30.4,29.92,SW,217,7.0,9.0,81,0.00,,---,0.11,0.00,VWS V14.01,2013-12-27 23:32:00,
2013-12-27 17:35:00,35.6,30.4,29.92,SW,225,10.0,10.0,81,0.01,,---,0.12,0.00,VWS V14.01,2013-12-27 23:35:00,
2013-12-27 17:37:00,35.6,30.4,29.92,SW,225,10.0,10.0,81,0.01,,---,0.12,0.00,VWS V14.01,2013-12-27 23:37:00,
2013-12-27 17:40:00,35.6,30.4,29.92,SW,219,7.0,10.0,81,0.01,,---,0.12,0.00,VWS V14.01,2013-12-27 23:40:00,
2013-12-27 17:42:00,35.6,30.4,29.92,SW,219,7.0,10.0,81,0.01,,---,0.12,0.00,VWS V14.01,2013-12-27 23:42:00,
2013-12-27 17:45:00,35.7,30.8,29.92,SW,223,6.0,11.0,82,0.01,,---,0.12,0.00,VWS V14.01,2013-12-27 23:45:00,
2013-12-27 17:47:00,35.7,30.8,29.92,SW,223,6.0,11.0,82,0.01,,---,0.12,0.00,VWS V14.01,2013-12-27 23:47:00,
2013-12-27 17:50:00,35.7,30.8,29.92,SW,225,5.0,10.0,82,0.00,,---,0.11,0.00,VWS V14.01,2013-12-27 23:50:00,
2013-12-27 17:55:00,35.6,30.7,29.92,SW,225,4.0,9.0,82,0.00,,---,0.11,0.00,VWS V14.01,2013-12-27 23:55:00,
2013-12-27 18:00:00,35.5,30.6,29.92,WSW,248,3.0,7.0,82,0.00,,---,0.11,0.00,VWS V14.01,2013-12-28 00:00:00,
2013-12-27 18:05:00,35.4,30.5,29.92,SW,225,3.0,6.0,82,0.00,,---,0.11,0.00,VWS V14.01,2013-12-28 00:05:00,
2013-12-27 18:10:00,35.3,30.7,29.93,SW,225,4.0,7.0,83,0.00,,---,0.11,0.00,VWS V14.01,2013-12-28 00:10:00,
2013-12-27 18:15:00,35.3,30.7,29.93,SW,225,5.0,9.0,83,0.00,,---,0.11,0.00,VWS V14.01,2013-12-28 00:15:00,
2013-12-27 18:20:00,35.2,30.6,29.93,SW,225,4.0,6.0,83,0.00,,---,0.11,0.00,VWS V14.01,2013-12-28 00:20:00,
2013-12-27 18:25:00,35.0,30.4,29.94,SW,225,4.0,7.0,83,0.00,,---,0.11,0.00,VWS V14.01,2013-12-28 00:25:00,
2013-12-27 18:30:00,34.9,30.3,29.94,SW,225,4.0,7.0,83,0.00,,---,0.11,0.00,VWS V14.01,2013-12-28 00:30:00,
2013-12-27 18:35:00,34.6,30.3,29.94,SSW,202,4.0,7.0,84,0.00,,---,0.11,0.00,VWS V14.01,2013-12-28 00:35:00,
2013-12-27 18:40:00,34.4,30.1,29.95,SW,225,4.0,7.0,84,0.00,,---,0.11,0.00,VWS V14.01,2013-12-28 00:40:00,
2013-12-27 18:45:00,34.4,30.1,29.94,SW,225,4.0,9.0,84,0.00,,---,0.11,0.00,VWS V14.01,2013-12-28 00:45:00,
2013-12-27 18:50:00,34.3,30.0,29.95,SSW,202,3.0,6.0,84,0.00,,---,0.11,0.00,VWS V14.01,2013-12-28 00:50:00,
2013-12-27 18:55:00,34.2,30.2,29.95,SSW,202,4.0,7.0,85,0.00,,---,0.11,0.00,VWS V14.01,2013-12-28 00:55:00,
2013-12-27 19:00:00,34.1,30.1,29.96,SW,225,4.0,7.0,85,0.00,,---,0.11,0.00,VWS V14.01,2013-12-28 01:00:00,
2013-12-27 19:05:00,33.9,29.9,29.95,SW,225,4.0,6.0,85,0.00,,---,0.11,0.00,VWS V14.01,2013-12-28 01:05:00,
2013-12-27 19:10:00,33.9,29.9,29.95,SW,225,5.0,8.0,85,0.00,,---,0.11,0.00,VWS V14.01,2013-12-28 01:10:00,
2013-12-27 19:15:00,33.9,29.9,29.95,SSW,202,4.0,11.0,85,0.00,,---,0.11,0.00,VWS V14.01,2013-12-28 01:15:00,
2013-12-27 19:20:00,33.8,29.8,29.96,SW,225,4.0,7.0,85,0.00,,---,0.11,0.00,VWS V14.01,2013-12-28 01:20:00,
2013-12-27 19:25:00,33.7,30.0,29.96,SSW,202,3.0,6.0,86,0.00,,---,0.11,0.00,VWS V14.01,2013-12-28 01:25:00,
2013-12-27 19:30:00,33.6,29.9,29.96,SW,225,3.0,6.0,86,0.00,,---,0.11,0.00,VWS V14.01,2013-12-28 01:30:00,
2013-12-27 19:35:00,33.5,29.8,29.96,SW,225,4.0,7.0,86,0.00,,---,0.11,0.00,VWS V14.01,2013-12-28 01:35:00,
2013-12-27 19:40:00,33.5,29.8,29.96,SW,225,4.0,7.0,86,0.00,,---,0.11,0.00,VWS V14.01,2013-12-28 01:40:00,
2013-12-27 19:45:00,33.4,29.7,29.97,SW,225,3.0,5.0,86,0.00,,---,0.11,0.00,VWS V14.01,2013-12-28 01:45:00,
2013-12-27 19:50:00,33.4,30.0,29.97,SW,225,4.0,7.0,87,0.00,,---,0.11,0.00,VWS V14.01,2013-12-28 01:50:00,
2013-12-27 19:55:00,33.4,30.0,29.97,SW,225,4.0,6.0,87,0.00,,---,0.11,0.00,VWS V14.01,2013-12-28 01:55:00,
2013-12-27 20:00:00,33.3,29.6,29.97,SW,225,2.0,5.0,86,0.00,,---,0.11,0.00,VWS V14.01,2013-12-28 02:00:00,
2013-12-27 20:05:00,33.2,29.8,29.97,SW,225,3.0,6.0,87,0.00,,---,0.11,0.00,VWS V14.01,2013-12-28 02:05:00,
2013-12-27 20:10:00,33.1,29.7,29.97,SW,225,3.0,5.0,87,0.00,,---,0.11,0.00,VWS V14.01,2013-12-28 02:10:00,
2013-12-27 20:15:00,33.0,29.6,29.97,SW,225,4.0,6.0,87,0.00,,---,0.11,0.00,VWS V14.01,2013-12-28 02:15:00,
2013-12-27 20:20:00,33.0,29.6,29.97,SSW,202,4.0,6.0,87,0.00,,---,0.11,0.00,VWS V14.01,2013-12-28 02:20:00,
2013-12-27 20:25:00,33.0,29.6,29.97,SSW,202,4.0,6.0,87,0.00,,---,0.11,0.00,VWS V14.01,2013-12-28 02:25:00,
2013-12-27 20:30:00,33.0,29.6,29.97,SSW,202,4.0,7.0,87,0.00,,---,0.11,0.00,VWS V14.01,2013-12-28 02:30:00,
2013-12-27 20:35:00,33.1,29.9,29.98,SW,225,4.0,8.0,88,0.00,,---,0.11,0.00,VWS V14.01,2013-12-28 02:35:00,
2013-12-27 20:40:00,33.0,29.8,29.98,SW,225,5.0,7.0,88,0.00,,---,0.11,0.00,VWS V14.01,2013-12-28 02:40:00,
2013-12-27 20:45:00,33.0,29.8,29.98,SW,225,3.0,6.0,88,0.00,,---,0.11,0.00,VWS V14.01,2013-12-28 02:45:00,
2013-12-27 20:50:00,32.9,29.7,29.98,SW,225,3.0,5.0,88,0.00,,---,0.11,0.00,VWS V14.01,2013-12-28 02:50:00,
2013-12-27 20:55:00,32.8,29.6,29.97,SW,225,3.0,6.0,88,0.00,,---,0.11,0.00,VWS V14.01,2013-12-28 02:55:00,
2013-12-27 21:00:00,32.6,29.5,29.98,SSW,202,5.0,8.0,88,0.00,,---,0.11,0.00,VWS V14.01,2013-12-28 03:00:00,
2013-12-27 21:05:00,32.5,29.4,29.97,SSW,202,3.0,5.0,88,0.00,,---,0.11,0.00,VWS V14.01,2013-12-28 03:05:00,
2013-12-27 21:10:00,32.3,29.1,29.97,SSW,202,2.0,6.0,88,0.00,,---,0.11,0.00,VWS V14.01,2013-12-28 03:10:00,
2013-12-27 21:15:00,32.1,29.2,29.97,SSW,202,4.0,6.0,89,0.00,,---,0.11,0.00,VWS V14.01,2013-12-28 03:15:00,
2013-12-27 21:20:00,31.9,29.0,29.97,SSW,202,4.0,6.0,89,0.00,,---,0.11,0.00,VWS V14.01,2013-12-28 03:20:00,
2013-12-27 21:25:00,31.8,28.9,29.97,SSW,202,3.0,6.0,89,0.00,,---,0.11,0.00,VWS V14.01,2013-12-28 03:25:00,
2013-12-27 21:30:00,31.7,28.8,29.97,SSW,202,3.0,5.0,89,0.00,,---,0.11,0.00,VWS V14.01,2013-12-28 03:30:00,
2013-12-27 21:35:00,31.6,28.7,29.97,SSW,202,3.0,5.0,89,0.00,,---,0.11,0.00,VWS V14.01,2013-12-28 03:35:00,
2013-12-27 21:40:00,31.5,28.6,29.97,SSW,202,2.0,4.0,89,0.00,,---,0.11,0.00,VWS V14.01,2013-12-28 03:40:00,
2013-12-27 21:45:00,31.4,28.8,29.98,SSW,202,3.0,4.0,90,0.00,,---,0.11,0.00,VWS V14.01,2013-12-28 03:45:00,
2013-12-27 21:50:00,31.4,28.8,29.98,SSW,202,3.0,4.0,90,0.00,,---,0.11,0.00,VWS V14.01,2013-12-28 03:50:00,
2013-12-27 21:55:00,31.2,28.6,29.98,SSW,202,2.0,3.0,90,0.00,,---,0.11,0.00,VWS V14.01,2013-12-28 03:55:00,
2013-12-27 22:00:00,31.2,28.6,29.98,SSW,202,2.0,4.0,90,0.00,,---,0.11,0.00,VWS V14.01,2013-12-28 04:00:00,
2013-12-27 22:05:00,31.1,28.5,29.97,SSW,202,1.0,3.0,90,0.00,,---,0.11,0.00,VWS V14.01,2013-12-28 04:05:00,
2013-12-27 22:10:00,30.9,28.3,29.97,SSW,202,0.0,1.0,90,0.00,,---,0.11,0.00,VWS V14.01,2013-12-28 04:10:00,
2013-12-27 22:15:00,30.8,28.2,29.97,SSW,202,0.0,0.0,90,0.00,,---,0.11,0.00,VWS V14.01,2013-12-28 04:15:00,
2013-12-27 22:20:00,30.6,28.0,29.97,SSW,202,0.0,0.0,90,0.00,,---,0.11,0.00,VWS V14.01,2013-12-28 04:20:00,
2013-12-27 22:25:00,30.4,27.8,29.97,SSW,202,2.0,3.0,90,0.00,,---,0.11,0.00,VWS V14.01,2013-12-28 04:25:00,
2013-12-27 22:30:00,30.3,27.7,29.96,SSW,202,1.0,2.0,90,0.00,,---,0.11,0.00,VWS V14.01,2013-12-28 04:30:00,
2013-12-27 22:35:00,30.2,27.9,29.96,SSW,202,0.0,0.0,91,0.00,,---,0.11,0.00,VWS V14.01,2013-12-28 04:35:00,
2013-12-27 22:40:00,30.1,27.8,29.96,SSW,202,0.0,0.0,91,0.00,,---,0.11,0.00,VWS V14.01,2013-12-28 04:40:00,
2013-12-27 22:45:00,30.0,27.7,29.97,SSW,202,0.0,0.0,91,0.00,,---,0.11,0.00,VWS V14.01,2013-12-28 04:45:00,
2013-12-27 22:50:00,29.9,27.6,29.97,SSW,202,0.0,0.0,91,0.00,,---,0.11,0.00,VWS V14.01,2013-12-28 04:50:00,
2013-12-27 22:55:00,29.8,27.5,29.97,SSW,202,1.0,2.0,91,0.00,,---,0.11,0.00,VWS V14.01,2013-12-28 04:55:00,
2013-12-27 23:00:00,29.7,27.4,29.98,SSW,202,1.0,3.0,91,0.00,,---,0.11,0.00,VWS V14.01,2013-12-28 05:00:00,
2013-12-27 23:05:00,29.7,27.7,29.97,SSW,202,1.0,3.0,92,0.00,,---,0.11,0.00,VWS V14.01,2013-12-28 05:05:00,
2013-12-27 23:10:00,29.6,27.6,29.97,SSW,202,0.0,1.0,92,0.00,,---,0.11,0.00,VWS V14.01,2013-12-28 05:10:00,
2013-12-27 23:15:00,29.5,27.5,29.96,SSW,202,0.0,2.0,92,0.00,,---,0.11,0.00,VWS V14.01,2013-12-28 05:15:00,
2013-12-27 23:20:00,29.5,27.5,29.97,SSW,202,1.0,2.0,92,0.00,,---,0.11,0.00,VWS V14.01,2013-12-28 05:20:00,
2013-12-27 23:25:00,29.4,27.4,29.98,SSW,202,0.0,1.0,92,0.00,,---,0.11,0.00,VWS V14.01,2013-12-28 05:25:00,
2013-12-27 23:30:00,29.1,27.1,29.97,SSW,202,1.0,3.0,92,0.00,,---,0.11,0.00,VWS V14.01,2013-12-28 05:30:00,
2013-12-27 23:35:00,29.1,27.1,29.96,SSW,202,0.0,0.0,92,0.00,,---,0.11,0.00,VWS V14.01,2013-12-28 05:35:00,
2013-12-27 23:40:00,29.0,27.0,29.97,SSW,202,0.0,0.0,92,0.00,,---,0.11,0.00,VWS V14.01,2013-12-28 05:40:00,
2013-12-27 23:45:00,28.9,26.9,29.97,SSW,202,0.0,0.0,92,0.00,,---,0.11,0.00,VWS V14.01,2013-12-28 05:45:00,
2013-12-27 23:50:00,28.8,26.8,29.97,SSW,202,0.0,0.0,92,0.00,,---,0.11,0.00,VWS V14.01,2013-12-28 05:50:00,
2013-12-27 23:55:00,28.7,26.7,29.97,SSW,202,0.0,0.0,92,0.00,,---,0.11,0.00,VWS V14.01,2013-12-28 05:55:00,